SCP
0 0 1 1 0 0 0 0 0 0 0 0 0 0 0 0 0 0 0 0 0 0 -0 -0 -0 -0 -0 -0 -0 -0 -0 -0 -0 -0 -0 -0 -0 -0 -0 -0 -0 -0 -0 -0 -0 -0 -0 -0 -0
0 0 1 1 0 0 0 0 0 0 0 0 0 0 0 0 0 0 0 0 0 0 0 -0 -0 -0 -0 -0 -0 -0 -0 -0 -0 -0 -0 -0 -0 -0 -0 -0 -0 -0 -0 -0 -0 -0 -0 -0 -0
0 0 1 0 0 0 0 0 0 0 0 0 0 0 0 0 0 0 0 0 0 0 0 0 0 0 0 -0 -0 -0 -0 -0 -0 -0 -0 -0 -0 -0 0 -0 -0 -0 -0 -0 -0 -0 -0 -0 -0
0 1 1 0 0 0 0 0 0 0 0 0 0 0 0 0 0 0 0 0 0 0 0 0 0 0 0 0 -0 -0 -0 -0 -0 -0 -0 -0 0 0 0 -0 -0 -0 -0 -0 -0 -0 -0 -0 -0
0 0 0 0 0 0 0 0 0 0 0 0 0 0 0 0 0 0 0 0 0 0 0 0 0 0 0 0 0 0 -0 0 -0 -0 0 -0 0 0 -0 -0 -0 -0 -0 -0 -0 -0 -0 -0 -0
0 0 0 0 0 0 0 0 0 0 0 0 0 0 1 0 0 0 0 0 0 0 0 0 0 0 0 0 0 0 0 0 0 0 -0 -0 0 -0 -0 -0 -0 -0 -0 -0 -0 -0 -0 -0 -0
0 0 0 0 0 0 0 0 0 0 0 0 0 0 1 0 0 0 0 0 0 0 0 0 0 0 0 0 0 0 0 0 0 0 0 -0 -0 -0 -0 -0 -0 -0 -0 -0 -0 -0 -0 -0 -0
0 0 0 0 0 0 0 0 1 1 1 0 1 0 0 1 0 0 0 0 0 0 0 0 0 0 0 0 0 0 0 0 0 0 0 -0 -0 -0 -0 -0 -0 -0 -0 -0 -0 -0 -0 -0 -0
0 0 0 0 0 0 0 0 0 0 0 0 0 0 1 0 1 0 0 0 0 0 0 0 0 0 0 0 0 0 0 0 0 0 0 0 0 0 0 0 0 -0 -0 -0 -0 -0 -0 -0 -0
0 0 0 0 0 0 0 0 0 0 0 0 0 0 1 0 0 0 0 0 0 0 0 0 0 0 0 0 0 0 0 0 0 0 0 0 0 0 0 0 0 -0 -0 -0 -0 -0 0 0 0
0 0 0 0 0 0 0 0 0 0 0 0 0 0 0 0 0 1 0 0 0 0 0 0 0 0 0 0 0 0 0 0 0 0 0 0 0 0 0 0 0 0 0 0 0 0 0 0 0
0 0 0 0 0 0 0 0 0 0 0 0 0 0 0 0 0 0 1 0 0 0 0 0 0 0 0 0 0 0 0 0 0 0 0 0 0 0 0 0 0 0 0 0 0 0 0 0 0
0 0 0 0 0 0 0 0 0 0 0 0 0 0 0 0 0 0 1 0 0 0 0 0 0 0 0 0 0 0 0 0 0 0 0 0 0 0 0 0 0 0 0 0 0 0 0 0 0
0 0 0 0 0 0 0 0 0 0 0 0 0 0 0 0 0 0 0 0 0 0 0 0 0 0 0 0 0 0 0 0 0 0 0 0 0 0 0 0 0 0 0 0 0 0 0 0 0
0 0 0 0 0 0 0 0 0 0 0 0 0 0 0 0 0 0 0 0 0 0 0 0 0 0 0 0 0 0 0 0 0 0 0 0 0 0 0 0 0 0 0 0 0 0 0 0 0
0 0 0 0 0 0 0 0 0 0 0 0 0 0 0 0 0 0 0 0 0 1 0 0 0 0 0 0 0 0 0 0 0 0 0 0 0 0 0 0 0 0 0 0 0 0 0 0 0
0 0 0 0 0 0 0 -0 0 0 0 0 0 0 0 0 0 0 0 0 0 0 1 0 0 0 0 0 0 0 0 0 0 0 0 0 0 0 0 0 0 0 0 0 0 0 0 0 0
0 0 0 -0 0 0 0 0 0 0 0 0 0 0 0 0 0 0 1 1 1 1 1 1 0 0 0 1 0 0 0 0 0 0 0 0 0 0 0 0 0 0 0 0 0 0 0 0 0
0 0 0 -0 0 0 0 0 0 0 0 0 0 0 0 0 0 0 0 1 1 1 1 0 0 0 0 0 0 0 0 0 0 0 0 0 0 0 0 0 0 0 0 0 0 0 0 0 0
0 0 0 0 0 0 -0 0 0 0 0 0 0 0 0 0 0 0 0 0 0 1 1 0 0 0 0 0 0 0 0 0 0 0 0 0 0 0 0 0 0 0 0 0 0 0 0 0 0
0 0 0 0 0 0 -0 0 0 0 0 0 0 0 0 0 0 0 0 0 0 0 0 0 0 0 0 0 0 0 0 0 0 0 0 0 0 0 0 0 0 0 0 0 0 0 0 0 0
0 0 0 0 0 0 0 0 0 0 0 0 0 0 0 0 0 0 0 0 -0 0 1 0 1 0 1 0 0 0 0 0 0 0 0 0 0 0 0 0 0 0 0 0 0 0 0 0 0
0 0 0 0 0 0 0 0 0 -0 -0 -0 -0 -0 0 0 0 0 0 0 0 0 0 0 0 1 0 0 0 0 0 0 0 0 0 0 0 0 0 0 0 0 0 0 -0 0 0 0 0
0 0 0 0 0 0 0 0 0 0 0 -0 -0 0 0 0 0 1 1 0 0 0 0 1 1 1 0 0 0 0 0 0 0 0 0 0 0 0 0 0 0 0 0 -0 -0 -0 -0 0 0
0 0 0 0 0 0 0 0 0 0 0 0 0 -0 -0 0 0 1 1 0 0 0 0 1 1 0 0 0 0 0 0 0 0 0 0 0 0 0 0 0 0 0 0 0 -0 -0 -0 0 0
0 0 0 0 0 0 0 0 0 0 0 0 -0 -0 -0 0 0 0 1 0 0 0 0 0 0 0 0 0 0 0 0 -0 -0 0 0 0 0 -0 0 0 0 0 0 -0 -0 0 0 0 0
0 0 0 0 0 0 0 0 0 0 0 0 -0 0 -0 -0 0 0 0 0 0 0 0 0 0 0 0 0 -0 -0 -0 -0 -0 -0 -0 -0 -0 0 -0 -0 0 0 0 0 0 0 0 0 0
0 0 0 0 0 0 0 0 0 0 0 0 -0 -0 -0 -0 0 0 0 0 0 0 0 0 0 0 0 0 -0 -0 -0 -0 0 0 0 0 0 0 0 0 0 0 0 0 0 0 0 0 0
0 0 0 0 0 0 0 0 0 0 0 0 0 0 0 0 0 0 0 0 0 0 0 0 0 0 0 0 0 0 0 0 0 0 0 0 0 0 0 0 0 0 0 0 0 0 0 0 0
0 0 0 0 0 0 0 0 0 0 0 0 0 0 0 0 0 0 -0 -0 0 0 0 0 0 0 0 0 0 0 0 0 0 0 0 0 0 0 0 0 0 0 0 0 0 0 0 0 0
Wind_Speed_500mb
13 12 11 3 11 10 17 8 11 10 5 12 9 12 10 13 6 6 5 30 42 51 46 49 48 45 42 40 37 36 34 32 29 25 20 15 13 19 18 20 27 30 21 21 23 26 28 28 28
15 14 11 6 14 20 18 16 18 15 8 18 7 12 14 7 2 1 19 33 44 51 47 44 46 44 40 39 37 35 35 31 30 23 16 14 15 22 20 20 23 24 20 21 22 24 26 28 30
17 18 11 8 20 29 19 12 9 7 11 11 5 5 4 2 4 8 11 36 50 46 47 45 48 43 42 39 36 35 33 32 31 23 16 12 20 27 25 20 20 22 17 19 20 21 23 25 27
11 9 11 19 32 24 27 16 8 23 15 10 9 9 3 2 2 10 21 44 48 44 42 45 48 43 41 39 36 35 34 35 30 22 14 19 25 30 23 25 17 20 16 18 19 19 21 22 24
13 9 18 28 40 33 20 17 17 22 23 16 11 3 2 1 9 11 34 45 43 42 42 44 45 45 41 38 37 36 34 32 25 19 16 25 32 28 26 23 15 22 16 17 15 15 15 16 18
15 13 19 30 36 26 20 23 19 23 26 15 14 10 4 5 12 23 36 41 39 39 39 42 46 42 40 39 37 38 38 31 19 19 24 31 35 28 27 23 20 22 16 10 12 13 13 15 19
19 15 28 33 30 21 22 15 19 15 13 5 3 10 4 9 17 30 36 35 39 38 38 39 41 42 38 38 39 37 33 28 22 23 32 32 36 28 28 23 20 22 15 10 11 11 12 15 17
10 10 22 21 25 29 20 23 11 10 2 8 3 6 5 17 26 33 37 36 40 39 39 40 42 39 36 34 38 36 30 27 30 29 36 34 30 27 24 24 17 21 16 12 12 12 13 16 21
7 11 17 22 18 19 11 13 9 6 15 7 10 8 2 18 27 38 39 36 41 44 44 43 41 38 36 32 34 34 31 34 38 38 34 32 25 23 19 24 19 21 17 15 13 15 18 24 26
13 10 11 10 19 20 23 27 28 19 24 22 16 11 4 23 33 44 45 41 45 47 50 44 41 38 38 34 32 32 34 39 39 38 31 23 26 21 23 24 23 22 18 18 18 22 27 30 30
4 10 7 21 24 28 32 33 33 34 34 38 30 24 14 26 36 41 40 35 49 48 49 46 43 40 39 35 36 35 36 39 42 36 29 25 25 26 24 25 25 23 20 21 26 29 24 26 26
12 11 15 15 17 19 29 33 32 34 39 40 42 37 25 30 36 50 44 53 56 54 53 50 44 43 40 37 38 40 41 45 35 32 28 25 25 28 28 26 27 26 22 29 29 29 31 29 28
11 12 15 24 29 33 31 31 35 36 36 37 36 33 30 34 37 42 48 49 50 53 54 53 49 45 43 40 39 45 51 45 32 31 27 25 27 28 29 27 26 27 32 32 32 30 28 26 25
13 24 31 20 21 18 20 25 8 15 11 15 25 32 36 39 42 43 48 50 53 52 53 54 50 46 44 43 43 51 49 48 38 29 27 28 28 28 29 29 29 32 33 35 34 31 27 25 22
15 17 20 2 13 18 8 24 20 12 15 16 19 19 20 30 39 51 53 58 55 50 49 54 51 48 45 45 43 52 52 48 42 33 30 32 31 30 33 31 34 33 35 33 30 29 28 26 24
9 10 16 15 10 2 9 26 11 16 16 24 30 30 20 18 26 38 48 52 51 56 51 52 53 50 47 45 48 49 53 47 41 34 35 34 33 35 36 36 36 41 39 38 35 33 28 24 20
1 18 26 19 14 11 13 27 18 33 31 31 32 33 25 21 15 29 40 47 51 53 58 52 54 52 50 49 52 47 46 48 40 36 39 35 36 39 39 40 43 44 41 38 33 30 24 21 19
24 25 19 24 16 25 29 31 29 36 37 33 33 32 26 24 17 15 32 44 46 51 56 63 60 50 48 50 55 54 48 43 42 36 39 38 39 42 41 41 44 44 41 40 36 31 26 20 18
23 24 26 23 16 21 17 27 12 28 23 23 20 23 22 22 16 9 17 35 41 49 52 61 60 56 53 62 66 61 61 52 44 43 43 45 40 42 41 43 45 43 42 39 34 29 30 26 20
21 21 23 7 10 9 30 9 8 22 21 23 31 27 23 23 18 11 8 24 37 42 53 57 60 61 59 67 67 64 61 54 45 47 49 45 41 43 44 45 43 44 41 40 38 36 29 25 28
19 19 26 21 21 6 27 13 7 34 33 38 33 29 25 24 25 17 12 18 34 43 52 53 56 61 60 57 59 62 53 55 53 50 52 52 50 48 48 43 43 43 42 39 39 38 34 30 30
18 28 21 10 9 14 22 7 9 40 39 40 44 43 36 28 26 24 19 21 31 43 51 54 58 60 61 66 68 56 54 61 57 56 59 63 58 60 61 54 49 45 38 35 38 39 35 32 29
19 25 7 4 5 11 29 8 21 42 40 52 55 54 40 33 30 26 22 23 24 33 41 42 50 58 60 61 61 45 52 45 49 51 60 68 68 75 74 68 56 50 43 36 37 46 42 38 36
32 11 6 5 4 5 14 10 19 25 36 43 54 43 37 32 23 17 14 17 16 27 36 40 47 45 52 58 53 53 42 53 57 57 71 72 78 76 70 80 75 60 66 57 48 49 44 43 43
33 23 5 3 7 10 15 12 11 31 41 32 32 41 37 30 24 13 11 16 21 26 31 31 40 54 53 52 55 46 29 5 11 19 27 41 35 36 57 76 65 71 58 48 48 48 45 46 46
15 12 6 5 11 11 17 20 12 28 33 42 44 41 40 37 28 34 26 29 29 29 28 31 39 40 32 37 41 15 15 26 22 12 22 48 34 41 64 76 67 54 57 50 46 45 45 43 46
9 10 5 1 4 8 5 24 8 30 32 46 51 55 54 44 38 44 44 37 34 29 25 31 29 24 17 14 20 34 38 20 27 31 22 26 24 41 62 65 55 48 41 44 47 42 42 46 48
9 2 3 4 11 10 10 21 15 31 33 33 42 51 51 43 42 43 50 53 49 44 38 46 51 43 46 44 42 28 25 25 26 25 26 17 18 19 53 65 57 43 42 40 44 44 38 48 44
1 4 5 3 5 8 11 12 10 15 21 26 31 37 44 44 51 50 48 56 52 48 49 54 53 44 41 41 41 21 20 9 18 18 22 24 12 15 23 31 23 25 33 37 42 39 42 39 38
5 4 7 7 4 2 6 6 9 10 13 19 22 27 30 39 39 47 56 54 50 50 44 41 43 27 32 35 23 18 18 20 23 24 24 22 20 21 20 21 21 24 29 30 29 30 30 31 32
Wind_Direction_500mb
204 187 177 178 241 241 241 223 268 242 184 347 286 238 268 314 255 354 200 165 165 164 164 168 171 169 169 168 168 169 166 162 160 168 164 150 137 139 124 114 115 118 112 94 83 75 76 86 93
195 177 166 207 248 236 233 223 226 216 360 338 270 252 237 233 340 324 148 165 167 162 165 169 175 174 172 172 171 171 168 167 170 177 173 156 150 147 130 122 120 118 116 104 86 77 75 80 84
188 177 207 226 234 240 253 226 262 297 245 329 299 298 320 59 307 174 180 164 158 161 166 175 176 176 175 176 176 172 173 173 175 181 164 157 154 148 139 137 129 118 121 103 89 78 79 85 88
172 196 230 234 234 240 256 242 246 291 275 268 314 271 128 330 123 167 178 159 160 162 162 178 176 179 179 177 176 178 174 178 188 185 181 161 155 146 149 146 133 125 120 111 95 83 81 85 93
178 221 240 236 245 250 239 257 266 279 284 279 295 259 203 4 186 167 158 160 166 166 167 175 183 179 178 177 180 178 177 190 189 192 178 161 150 145 152 156 134 133 132 117 100 93 86 84 97
193 242 239 243 248 244 252 257 254 270 275 278 253 238 156 187 160 154 159 164 170 170 170 176 180 181 180 184 180 181 192 192 201 193 167 156 146 157 155 155 147 135 146 127 113 104 92 92 101
241 230 250 259 268 263 252 262 262 275 266 195 298 255 138 183 161 156 162 167 171 172 174 172 176 181 183 181 186 194 202 199 193 174 153 150 158 159 159 157 161 147 164 151 131 118 110 112 112
225 259 261 255 263 258 256 276 276 280 240 320 210 236 161 187 163 163 161 170 173 177 180 179 177 176 178 185 195 206 203 187 169 150 156 162 166 172 175 162 165 151 161 155 141 128 120 116 117
186 241 250 255 258 257 228 249 224 263 265 273 276 289 356 172 176 168 167 178 180 183 184 184 177 176 176 185 196 206 191 171 165 162 169 171 162 165 140 173 156 153 161 150 143 129 122 117 113
230 244 270 287 278 272 272 272 269 276 259 264 262 271 214 178 183 179 177 187 188 187 189 187 185 190 189 186 191 181 180 173 172 166 163 169 151 166 160 161 160 161 156 150 139 129 126 111 109
207 263 305 267 270 274 274 272 272 270 264 267 270 284 227 190 197 198 199 211 199 193 190 190 192 194 190 185 182 181 179 182 168 165 170 164 167 164 153 154 150 153 152 149 140 133 123 122 119
258 252 272 283 278 279 275 285 272 267 271 265 265 269 248 220 210 211 206 197 202 198 196 192 194 192 191 187 181 186 184 171 168 174 179 172 171 170 168 163 161 157 154 152 145 140 134 124 116
234 309 287 279 283 278 275 270 273 276 270 261 256 258 243 235 229 218 209 206 206 205 200 196 194 194 192 190 186 196 188 185 176 178 187 181 181 177 174 171 166 164 160 156 151 141 135 124 121
322 305 293 289 291 276 275 280 252 255 284 265 246 258 253 243 236 228 215 212 210 206 205 197 197 198 193 192 193 196 192 189 191 192 202 193 185 182 178 173 171 170 162 160 154 150 143 133 125
295 292 302 291 297 292 271 256 234 251 285 269 255 266 277 255 241 233 224 215 210 206 204 200 201 202 195 195 193 201 195 195 201 206 205 196 193 188 186 176 174 170 165 160 153 155 151 150 143
306 265 335 347 325 340 270 283 286 292 295 289 284 274 277 286 250 233 226 223 213 206 206 201 201 200 196 198 195 205 199 197 203 205 202 201 200 192 187 180 175 176 173 172 171 168 159 153 147
240 328 329 334 314 316 275 297 300 310 301 291 283 273 272 277 273 234 225 222 212 217 212 208 206 200 194 201 201 201 202 197 198 204 203 203 198 192 190 187 187 183 181 179 177 173 169 163 159
320 321 320 320 323 314 298 291 314 325 318 300 283 269 271 274 264 252 228 228 214 214 205 206 206 200 197 198 206 207 198 197 202 199 201 205 201 193 192 190 190 189 188 187 186 187 178 172 168
304 306 313 329 339 319 336 318 355 356 10 2 355 303 283 270 270 269 232 223 222 217 212 212 209 205 202 207 206 208 207 200 201 201 205 207 204 198 199 200 196 197 197 198 194 189 193 189 177
313 310 342 339 6 295 344 66 29 18 20 4 345 333 311 295 269 251 239 213 211 211 220 216 218 211 208 212 209 212 211 211 206 206 211 211 207 202 200 203 206 206 204 205 204 206 195 202 202
342 335 334 308 319 218 344 189 0 21 7 355 354 338 320 300 287 265 242 213 208 210 217 210 217 213 214 217 216 215 219 222 219 216 215 213 208 204 202 205 211 215 216 219 219 219 220 219 224
317 354 305 280 300 15 15 327 30 357 351 353 348 342 331 309 284 268 250 223 212 213 214 214 217 206 214 215 213 214 213 228 227 226 224 220 214 210 204 198 205 213 219 229 232 235 236 234 235
315 336 297 245 280 275 17 284 23 3 348 340 339 333 331 316 294 271 248 230 214 203 212 215 211 210 211 213 215 215 222 234 250 248 243 228 221 216 214 196 201 201 205 217 240 245 241 244 242
316 325 259 238 274 325 13 336 4 353 331 325 326 346 339 335 331 282 249 227 199 188 192 202 209 203 215 213 206 211 233 248 252 261 241 236 221 213 207 199 194 200 206 213 217 239 243 246 245
358 356 338 301 359 356 1 310 34 347 331 323 349 358 356 356 13 59 96 126 146 163 172 189 193 206 216 209 205 219 227 316 254 226 228 216 179 197 212 202 202 206 207 217 239 238 245 247 247
341 2 30 348 347 323 331 351 6 342 339 11 12 12 13 12 30 68 98 110 124 140 159 172 191 205 214 203 204 178 134 112 128 171 192 172 185 198 198 200 201 203 214 237 234 241 246 246 250
8 12 7 290 179 272 4 26 49 342 8 11 10 10 17 20 34 79 92 100 106 109 126 148 156 154 117 155 170 109 142 144 140 150 157 173 204 226 203 199 204 215 230 230 229 230 245 248 248
1 55 258 76 1 346 21 39 30 337 356 4 11 10 16 26 42 79 99 104 104 107 112 112 124 122 126 131 140 126 139 142 155 171 197 223 224 235 203 207 213 216 220 211 243 238 243 251 250
150 43 41 295 335 335 321 55 7 332 348 357 13 18 19 36 50 78 97 108 106 109 113 126 117 112 138 136 156 147 160 197 189 189 206 226 234 199 186 202 209 207 226 223 228 237 241 241 245
306 36 16 330 8 298 309 62 19 1 350 0 17 21 34 52 65 76 91 106 107 110 113 129 138 106 131 153 158 175 152 127 116 121 128 133 133 140 156 181 203 219 220 222 226 230 240 249 256
Wind_Speed_850mb
13 12 11 3 11 10 17 8 11 10 5 12 9 12 10 13 6 6 5 30 42 51 46 49 48 45 42 40 37 36 34 32 29 25 20 15 13 19 18 20 27 30 21 21 23 26 28 28 28
15 14 11 6 14 20 18 16 18 15 8 18 7 12 14 7 2 1 19 33 44 51 47 44 46 44 40 39 37 35 35 31 30 23 16 14 15 22 20 20 23 24 20 21 22 24 26 28 30
17 18 11 8 20 29 19 12 9 7 11 11 5 5 4 2 4 8 11 36 50 46 47 45 48 43 42 39 36 35 33 32 31 23 16 12 20 27 25 20 20 22 17 19 20 21 23 25 27
11 9 11 19 32 24 27 16 8 23 15 10 9 9 3 2 2 10 21 44 48 44 42 45 48 43 41 39 36 35 34 35 30 22 14 19 25 30 23 25 17 20 16 18 19 19 21 22 24
13 9 18 28 40 33 20 17 17 22 23 16 11 3 2 1 9 11 34 45 43 42 42 44 45 45 41 38 37 36 34 32 25 19 16 25 32 28 26 23 15 22 16 17 15 15 15 16 18
15 13 19 30 36 26 20 23 19 23 26 15 14 10 4 5 12 23 36 41 39 39 39 42 46 42 40 39 37 38 38 31 19 19 24 31 35 28 27 23 20 22 16 10 12 13 13 15 19
19 15 28 33 30 21 22 15 19 15 13 5 3 10 4 9 17 30 36 35 39 38 38 39 41 42 38 38 39 37 33 28 22 23 32 32 36 28 28 23 20 22 15 10 11 11 12 15 17
10 10 22 21 25 29 20 23 11 10 2 8 3 6 5 17 26 33 37 36 40 39 39 40 42 39 36 34 38 36 30 27 30 29 36 34 30 27 24 24 17 21 16 12 12 12 13 16 21
7 11 17 22 18 19 11 13 9 6 15 7 10 8 2 18 27 38 39 36 41 44 44 43 41 38 36 32 34 34 31 34 38 38 34 32 25 23 19 24 19 21 17 15 13 15 18 24 26
13 10 11 10 19 20 23 27 28 19 24 22 16 11 4 23 33 44 45 41 45 47 50 44 41 38 38 34 32 32 34 39 39 38 31 23 26 21 23 24 23 22 18 18 18 22 27 30 30
4 10 7 21 24 28 32 33 33 34 34 38 30 24 14 26 36 41 40 35 49 48 49 46 43 40 39 35 36 35 36 39 42 36 29 25 25 26 24 25 25 23 20 21 26 29 24 26 26
12 11 15 15 17 19 29 33 32 34 39 40 42 37 25 30 36 50 44 53 56 54 53 50 44 43 40 37 38 40 41 45 35 32 28 25 25 28 28 26 27 26 22 29 29 29 31 29 28
11 12 15 24 29 33 31 31 35 36 36 37 36 33 30 34 37 42 48 49 50 53 54 53 49 45 43 40 39 45 51 45 32 31 27 25 27 28 29 27 26 27 32 32 32 30 28 26 25
13 24 31 20 21 18 20 25 8 15 11 15 25 32 36 39 42 43 48 50 53 52 53 54 50 46 44 43 43 51 49 48 38 29 27 28 28 28 29 29 29 32 33 35 34 31 27 25 22
15 17 20 2 13 18 8 24 20 12 15 16 19 19 20 30 39 51 53 58 55 50 49 54 51 48 45 45 43 52 52 48 42 33 30 32 31 30 33 31 34 33 35 33 30 29 28 26 24
9 10 16 15 10 2 9 26 11 16 16 24 30 30 20 18 26 38 48 52 51 56 51 52 53 50 47 45 48 49 53 47 41 34 35 34 33 35 36 36 36 41 39 38 35 33 28 24 20
1 18 26 19 14 11 13 27 18 33 31 31 32 33 25 21 15 29 40 47 51 53 58 52 54 52 50 49 52 47 46 48 40 36 39 35 36 39 39 40 43 44 41 38 33 30 24 21 19
24 25 19 24 16 25 29 31 29 36 37 33 33 32 26 24 17 15 32 44 46 51 56 63 60 50 48 50 55 54 48 43 42 36 39 38 39 42 41 41 44 44 41 40 36 31 26 20 18
23 24 26 23 16 21 17 27 12 28 23 23 20 23 22 22 16 9 17 35 41 49 52 61 60 56 53 62 66 61 61 52 44 43 43 45 40 42 41 43 45 43 42 39 34 29 30 26 20
21 21 23 7 10 9 30 9 8 22 21 23 31 27 23 23 18 11 8 24 37 42 53 57 60 61 59 67 67 64 61 54 45 47 49 45 41 43 44 45 43 44 41 40 38 36 29 25 28
19 19 26 21 21 6 27 13 7 34 33 38 33 29 25 24 25 17 12 18 34 43 52 53 56 61 60 57 59 62 53 55 53 50 52 52 50 48 48 43 43 43 42 39 39 38 34 30 30
18 28 21 10 9 14 22 7 9 40 39 40 44 43 36 28 26 24 19 21 31 43 51 54 58 60 61 66 68 56 54 61 57 56 59 63 58 60 61 54 49 45 38 35 38 39 35 32 29
19 25 7 4 5 11 29 8 21 42 40 52 55 54 40 33 30 26 22 23 24 33 41 42 50 58 60 61 61 45 52 45 49 51 60 68 68 75 74 68 56 50 43 36 37 46 42 38 36
32 11 6 5 4 5 14 10 19 25 36 43 54 43 37 32 23 17 14 17 16 27 36 40 47 45 52 58 53 53 42 53 57 57 71 72 78 76 70 80 75 60 66 57 48 49 44 43 43
33 23 5 3 7 10 15 12 11 31 41 32 32 41 37 30 24 13 11 16 21 26 31 31 40 54 53 52 55 46 29 5 11 19 27 41 35 36 57 76 65 71 58 48 48 48 45 46 46
15 12 6 5 11 11 17 20 12 28 33 42 44 41 40 37 28 34 26 29 29 29 28 31 39 40 32 37 41 15 15 26 22 12 22 48 34 41 64 76 67 54 57 50 46 45 45 43 46
9 10 5 1 4 8 5 24 8 30 32 46 51 55 54 44 38 44 44 37 34 29 25 31 29 24 17 14 20 34 38 20 27 31 22 26 24 41 62 65 55 48 41 44 47 42 42 46 48
9 2 3 4 11 10 10 21 15 31 33 33 42 51 51 43 42 43 50 53 49 44 38 46 51 43 46 44 42 28 25 25 26 25 26 17 18 19 53 65 57 43 42 40 44 44 38 48 44
1 4 5 3 5 8 11 12 10 15 21 26 31 37 44 44 51 50 48 56 52 48 49 54 53 44 41 41 41 21 20 9 18 18 22 24 12 15 23 31 23 25 33 37 42 39 42 39 38
5 4 7 7 4 2 6 6 9 10 13 19 22 27 30 39 39 47 56 54 50 50 44 41 43 27 32 35 23 18 18 20 23 24 24 22 20 21 20 21 21 24 29 30 29 30 30 31 32
Wind_Direction_850mb
204 187 177 178 241 241 241 223 268 242 184 347 286 238 268 314 255 354 200 165 165 164 164 168 171 169 169 168 168 169 166 162 160 168 164 150 137 139 124 114 115 118 112 94 83 75 76 86 93
195 177 166 207 248 236 233 223 226 216 360 338 270 252 237 233 340 324 148 165 167 162 165 169 175 174 172 172 171 171 168 167 170 177 173 156 150 147 130 122 120 118 116 104 86 77 75 80 84
188 177 207 226 234 240 253 226 262 297 245 329 299 298 320 59 307 174 180 164 158 161 166 175 176 176 175 176 176 172 173 173 175 181 164 157 154 148 139 137 129 118 121 103 89 78 79 85 88
172 196 230 234 234 240 256 242 246 291 275 268 314 271 128 330 123 167 178 159 160 162 162 178 176 179 179 177 176 178 174 178 188 185 181 161 155 146 149 146 133 125 120 111 95 83 81 85 93
178 221 240 236 245 250 239 257 266 279 284 279 295 259 203 4 186 167 158 160 166 166 167 175 183 179 178 177 180 178 177 190 189 192 178 161 150 145 152 156 134 133 132 117 100 93 86 84 97
193 242 239 243 248 244 252 257 254 270 275 278 253 238 156 187 160 154 159 164 170 170 170 176 180 181 180 184 180 181 192 192 201 193 167 156 146 157 155 155 147 135 146 127 113 104 92 92 101
241 230 250 259 268 263 252 262 262 275 266 195 298 255 138 183 161 156 162 167 171 172 174 172 176 181 183 181 186 194 202 199 193 174 153 150 158 159 159 157 161 147 164 151 131 118 110 112 112
225 259 261 255 263 258 256 276 276 280 240 320 210 236 161 187 163 163 161 170 173 177 180 179 177 176 178 185 195 206 203 187 169 150 156 162 166 172 175 162 165 151 161 155 141 128 120 116 117
186 241 250 255 258 257 228 249 224 263 265 273 276 289 356 172 176 168 167 178 180 183 184 184 177 176 176 185 196 206 191 171 165 162 169 171 162 165 140 173 156 153 161 150 143 129 122 117 113
230 244 270 287 278 272 272 272 269 276 259 264 262 271 214 178 183 179 177 187 188 187 189 187 185 190 189 186 191 181 180 173 172 166 163 169 151 166 160 161 160 161 156 150 139 129 126 111 109
207 263 305 267 270 274 274 272 272 270 264 267 270 284 227 190 197 198 199 211 199 193 190 190 192 194 190 185 182 181 179 182 168 165 170 164 167 164 153 154 150 153 152 149 140 133 123 122 119
258 252 272 283 278 279 275 285 272 267 271 265 265 269 248 220 210 211 206 197 202 198 196 192 194 192 191 187 181 186 184 171 168 174 179 172 171 170 168 163 161 157 154 152 145 140 134 124 116
234 309 287 279 283 278 275 270 273 276 270 261 256 258 243 235 229 218 209 206 206 205 200 196 194 194 192 190 186 196 188 185 176 178 187 181 181 177 174 171 166 164 160 156 151 141 135 124 121
322 305 293 289 291 276 275 280 252 255 284 265 246 258 253 243 236 228 215 212 210 206 205 197 197 198 193 192 193 196 192 189 191 192 202 193 185 182 178 173 171 170 162 160 154 150 143 133 125
295 292 302 291 297 292 271 256 234 251 285 269 255 266 277 255 241 233 224 215 210 206 204 200 201 202 195 195 193 201 195 195 201 206 205 196 193 188 186 176 174 170 165 160 153 155 151 150 143
306 265 335 347 325 340 270 283 286 292 295 289 284 274 277 286 250 233 226 223 213 206 206 201 201 200 196 198 195 205 199 197 203 205 202 201 200 192 187 180 175 176 173 172 171 168 159 153 147
240 328 329 334 314 316 275 297 300 310 301 291 283 273 272 277 273 234 225 222 212 217 212 208 206 200 194 201 201 201 202 197 198 204 203 203 198 192 190 187 187 183 181 179 177 173 169 163 159
320 321 320 320 323 314 298 291 314 325 318 300 283 269 271 274 264 252 228 228 214 214 205 206 206 200 197 198 206 207 198 197 202 199 201 205 201 193 192 190 190 189 188 187 186 187 178 172 168
304 306 313 329 339 319 336 318 355 356 10 2 355 303 283 270 270 269 232 223 222 217 212 212 209 205 202 207 206 208 207 200 201 201 205 207 204 198 199 200 196 197 197 198 194 189 193 189 177
313 310 342 339 6 295 344 66 29 18 20 4 345 333 311 295 269 251 239 213 211 211 220 216 218 211 208 212 209 212 211 211 206 206 211 211 207 202 200 203 206 206 204 205 204 206 195 202 202
342 335 334 308 319 218 344 189 0 21 7 355 354 338 320 300 287 265 242 213 208 210 217 210 217 213 214 217 216 215 219 222 219 216 215 213 208 204 202 205 211 215 216 219 219 219 220 219 224
317 354 305 280 300 15 15 327 30 357 351 353 348 342 331 309 284 268 250 223 212 213 214 214 217 206 214 215 213 214 213 228 227 226 224 220 214 210 204 198 205 213 219 229 232 235 236 234 235
315 336 297 245 280 275 17 284 23 3 348 340 339 333 331 316 294 271 248 230 214 203 212 215 211 210 211 213 215 215 222 234 250 248 243 228 221 216 214 196 201 201 205 217 240 245 241 244 242
316 325 259 238 274 325 13 336 4 353 331 325 326 346 339 335 331 282 249 227 199 188 192 202 209 203 215 213 206 211 233 248 252 261 241 236 221 213 207 199 194 200 206 213 217 239 243 246 245
358 356 338 301 359 356 1 310 34 347 331 323 349 358 356 356 13 59 96 126 146 163 172 189 193 206 216 209 205 219 227 316 254 226 228 216 179 197 212 202 202 206 207 217 239 238 245 247 247
341 2 30 348 347 323 331 351 6 342 339 11 12 12 13 12 30 68 98 110 124 140 159 172 191 205 214 203 204 178 134 112 128 171 192 172 185 198 198 200 201 203 214 237 234 241 246 246 250
8 12 7 290 179 272 4 26 49 342 8 11 10 10 17 20 34 79 92 100 106 109 126 148 156 154 117 155 170 109 142 144 140 150 157 173 204 226 203 199 204 215 230 230 229 230 245 248 248
1 55 258 76 1 346 21 39 30 337 356 4 11 10 16 26 42 79 99 104 104 107 112 112 124 122 126 131 140 126 139 142 155 171 197 223 224 235 203 207 213 216 220 211 243 238 243 251 250
150 43 41 295 335 335 321 55 7 332 348 357 13 18 19 36 50 78 97 108 106 109 113 126 117 112 138 136 156 147 160 197 189 189 206 226 234 199 186 202 209 207 226 223 228 237 241 241 245
306 36 16 330 8 298 309 62 19 1 350 0 17 21 34 52 65 76 91 106 107 110 113 129 138 106 131 153 158 175 152 127 116 121 128 133 133 140 156 181 203 219 220 222 226 230 240 249 256